Regional Weather Roundup
Issued by NWS Mobile, AL

Home | Current Version | Previous Version | Text Only | Print | Product List | Glossary On
Versions: 1 2 3 4 5 6 7 8 9 10 11 12 13 14 15 16 17 18 19 20 21 22 23 24 25 26 27 28 29 30 31 32 33 34 35 36 37 38 39 40 41 42 43 44 45 46 47 48 49 50
000
ASUS44 KMOB 280916
RWRMOB
REGIONAL WEATHER ROUNDUP
NATIONAL WEATHER SERVICE MOBILE AL
400 AM CDT THU MAY 28 2015

ALZ061>064-281000-
COASTAL ALABAMA


CITY           SKY/WX    TMP DP  RH WIND       PRES   REMARKS
MOBILE REG APT CLOUDY    71  71 100 CALM      30.10R
BROOKLEY FIELD HVY RAIN  75  73  93 CALM      30.10R FOG
GULF SHORES    PTSUNNY   73  73  98 CALM      30.08R

$$

ALZ051>060-281000-
INTERIOR SOUTHWEST AND SOUTH CENTRAL ALABAMA


CITY           SKY/WX    TMP DP  RH WIND       PRES   REMARKS
ANDALUSIA/OPP  PTCLDY    70  66  87 SE5       30.10S
EVERGREEN      PTCLDY    67  66  97 CALM      30.11S FOG
FLORALA        FOG       68  67  96 NE3       30.12R VSB 1/2
GREENVILLE     FAIR      68  66  93 CALM      30.11S

$$

FLZ001>006-281000-
WESTERN FLORIDA PANHANDLE


CITY           SKY/WX    TMP DP  RH WIND       PRES   REMARKS
CRESTVIEW      PTCLDY    69  67  93 CALM      30.10S
DESTIN         PTCLDY    74  71  91 E5        30.08R
DUKE FIELD     FAIR      68  67  95 E2        30.08R
MARY ESTHER    PTCLDY    71  67  87 NW1       30.07R
MILTON         MOSUNNY   72  69  90 NE3       30.09S
PENSACOLA      MOCLDY    75  73  93 E5        30.08S
NAS PENSACOLA  MOCLDY    77  73  87 SE7       30.07S
VALPARAISO     NOT AVBL

$$

...MARINE OBSERVATIONS...

STATION/POSITION TIME  SKY/WX   TEMP    WIND        PRES    VSBY
                                AIR SEA DIR/SP/G
                 (UTC)          (F)     (DEG/KT/KT) (MB)    (MI)
PASCAGOULA       0800            79     150/  5/  7 1018.0F
PETIT BOIS ISL   0800            79     130/  9/ 12 1018.2F
E DAUPHIN ISLAND 0900            79     140/  9/ 10 1018.3R
MIDDLE BAY LIGHT 0800            75      60/  5     1018.3R
USCG MOBILE BAY  0800            74 80   70/  5/  7 1017.6F
STATE DOCKS      0800            73 78              1018.5F
MEAHER PARK      0900            74      90/  1     1018.6S
FORT MORGAN      0800            79     180/ 11/ 12 1017.9F
12 S ORANGE BCH  0850            80 80  140/  8/  8 1017.5F
WVE H/P(F/S)=  3/ 6

PENSACOLA BAY    0800            79 81   CALM  /  3 1018.7F
64 S DAUPHIN ISL 0850            78 79  120/  6/  6 1018.3F
WVE H/P(F/S)=  3/ 6

67 S FORT MORGAN 0830            78     140/  6     1018.0F
115 SE PENSACOLA 0850            79 80  100/ 12/ 14 1018.4R
WVE H/P(F/S)=  3/ 7

MID GULF/42001   0850            81 82  100/ 10/ 12 1017.3S
WVE H/P(F/S)=  5/ 7

EAST GULF/42003  0850            80 82   50/ 14/ 17 1017.2R
WVE H/P(F/S)=  3/ 5


$$

...NEARBY LOCATIONS

CITY           SKY/WX    TMP DP  RH WIND       PRES   REMARKS
GULFPORT       PTCLDY    72  69  90 CALM      30.06F
BILOXI         PTCLDY    72  72 100 NE3       30.07S
PASCAGOULA     MOCLDY    72  71  97 CALM      30.08S
HATTIESBURG    FOG       70  69  97 CALM      30.10S VSB 1/4
LAUREL         CLOUDY    70 N/A N/A CALM      30.11S VSB 1
MERIDIAN       CLOUDY    68  67  96 SE3       30.12R FOG
MERIDIAN NAS   FOG       69  67  93 CALM      30.12S VSB 1
MONTGOMERY     CLOUDY    70  67  90 E6        30.13R
MAXWELL AFB    MOCLDY    70  68  95 E5        30.12R
TROY           CLEAR     68  66  93 E5        30.13S
FORT RUCKER    CLEAR     67  65  93 NE3       30.10F
DALEVILLE      CLEAR     67  66  99 NE8       30.11S FOG
DOTHAN         CLEAR     69  67  93 E8        30.15S

$$

...OTHER SURROUNDING LOCATIONS...

CITY           SKY/WX    TMP DP  RH WIND       PRES   REMARKS
BIRMINGHAM     CLOUDY    67  65  93 E5        30.14S
TUSCALOOSA     MOCLDY    68  66  93 CALM      30.12S
COLUMBUS GA    CLEAR     67  65  93 E6        30.14R
PANAMA CITY    NOT AVBL
TALLAHASSEE    CLEAR     72  67  84 E7        30.11S
BATON ROUGE    CLEAR     65  63  93 CALM      30.08S
NEW ORLEANS    PTCLDY    70  67  90 CALM      30.07S
SLIDELL        CLEAR     67  67 100 CALM      30.07S
JACKSON        CLOUDY    70  68  93 CALM      30.10S
MCCOMB         CLEAR     64  63  96 CALM      30.10R

$$

...SURROUNDING MARINE OBSERVATIONS...

STATION/POSITION TIME  SKY/WX   TEMP    WIND        PRES    VSBY
                                AIR SEA DIR/SP/G
                 (UTC)          (F)     (DEG/KT/KT) (MB)    (MI)
WAVELAND         0800            74 79   60/  4/  5 1018.3F
PASCAGOULA RGN A 0800            80     140/  7/ 11 1017.5F
PASCAGOULA PORT  0800               82                N/A
GRAND ISLE       0800            78 80  150/  5/  8 1018.0F
SOUTHWEST PASS   0900            79     140/ 10/ 11 1018.2S
PILOT STATION E  0800            78 75  140/  7/  9 1018.4F
SHELL BEACH      0800            76 80  160/  3/  5 1017.6F
PANAMA CITY      0800            72 82   70/  5/ 12 1018.2F
APALACHICOLA     0800            74 83   50/  7/  9 1018.5F
TYNDALL TOWER C  0900            77      80/ 14/ 15 1018.3F
S APLCHCLA/42036 0850            80 81   90/ 10/ 12 1018.1F
WVE H/P(F/S)=  2/ 6


$$




USA.gov is the U.S. government's official web portal to all federal, state and local government web resources and services.